Location: Cointrin
(46.2167°N, 6.1167°E)
Time: 12:22:42
(UTC+00:00)

AO-85 - Visible Passes

Search period start: 08 December 2023 00:00
Search period end: 18 December 2023 00:00
Orbit: 516 x 753 km, 64.8° (Epoch: 04 January)

Date Brightness Start Highest point End Pass type
(mag) Time Alt. Az. Time Alt. Az. Time Alt. Az.
08 Dec ? 17:57:46 10° NNW 17:59:07 15° N 17:59:07 15° N visible
09 Dec ? 18:17:07 10° NNW 18:18:40 19° N 18:18:40 19° N visible
10 Dec ? 16:57:47 10° N 17:00:13 14° NNE 17:01:01 14° NE visible
10 Dec ? 18:36:39 10° NNW 18:38:20 22° NNW 18:38:20 22° NNW visible
11 Dec ? 17:16:55 10° NNW 17:20:27 22° NE 17:20:49 22° NE visible
11 Dec ? 18:56:21 10° NW 18:58:08 24° NW 18:58:08 24° NW visible
12 Dec ? 17:36:18 10° NNW 17:40:30 36° NE 17:40:48 35° NE visible
12 Dec ? 19:16:19 10° NW 19:18:09 22° WNW 19:18:09 22° WNW visible
13 Dec ? 16:16:50 10° N 16:19:33 15° NNE 16:22:21 10° ENE visible
13 Dec ? 17:55:50 10° NNW 18:00:24 66° NE 18:01:05 57° E visible
13 Dec ? 19:36:48 10° WNW 19:38:27 16° W 19:38:27 16° W visible
14 Dec ? 16:36:01 10° NNW 16:39:43 24° NE 16:43:35 10° E visible
14 Dec ? 18:15:33 10° NW 18:20:08 65° WSW 18:21:53 37° S visible
15 Dec ? 16:55:25 10° NNW 16:59:43 40° NE 17:04:18 10° ESE visible
15 Dec ? 18:35:35 10° NW 18:39:44 32° WSW 18:43:38 12° S visible
16 Dec ? 17:14:57 10° NW 17:19:34 75° NE 17:24:28 10° SE visible
16 Dec ? 18:56:14 10° WNW 18:59:10 17° WSW 19:02:13 10° SSW visible
17 Dec ? 17:34:43 10° NW 17:39:15 56° WSW 17:44:04 10° SSE visible
